Location: Asheville, NC
(35.6000°N, 82.5500°W)
Time: 09:31:01
(UTC-04:00)

Vanguard 1 - Pass Details

Date: 07 December 2017
Orbit: 650 x 3832 km, 34.2° (Epoch: 16 July)

Event Time Altitude Azimuth Distance (km) Brightness Sun altitude
Rises 17:59:40 0° 276° (W) 3,945 14.4 -8.7°
Reaches altitude 10° 18:03:56 10° 255° (WSW) 2,538 13.8 -9.5°
Maximum altitude 18:07:06 15° 220° (SW) 1,941 12.6 -10.1°
Drops below altitude 10° 18:09:49 10° 184° (S) 2,117 12.1 -10.7°
Sets 18:12:52 0° 159° (SSE) 2,943 12.5 -11.2°
